Location: Castillon
(43.0896°N, 0.2156°E)
Time: 11:08:12
(UTC+00:00)

Cosmos 1544 Rocket - Pass Details

Date: 29 October 2021
Orbit: 603 x 631 km, 82.5° (Epoch: 08 December)

Event Time Altitude Azimuth Distance (km) Brightness Sun altitude
Rises 04:33:32 0° 352° (N) 2,900 6.9 -21.8°
Reaches altitude 10° 04:35:46 10° 352° (N) 1,985 6.1 -21.4°
Maximum altitude 04:40:10 88° 82° (E) 618 3.5 -20.6°
Drops below altitude 10° 04:44:30 10° 172° (S) 1,953 6.2 -19.8°
Sets 04:46:42 0° 173° (S) 2,849 7.1 -19.4°
